FW1310 Weather Reports


time (UTC)temp
C
wind
direction
speed
KPH
gust
KPH
rain 1hr
cm
rain 24hr
cm
rain mn
cm
humidity
%
barometer
mb
20260509123004 21 358 1.6 3.2 0.00 0.00 0.00 95 996.3
20260509122504 21 234 0.0 0.0 0.00 0.00 0.00 95 996.5
20260509122005 21 238 0.0 0.0 0.00 0.00 0.00 95 996.4
20260509121005 21 132 0.0 0.0 0.00 0.00 0.00 95 996.7
20260509120504 21 204 0.0 0.0 0.00 0.00 0.00 95 996.5
20260509115004 21 190 0.0 0.0 0.00 0.00 0.00 95 996.9
20260509114504 21 175 0.0 0.0 0.00 0.00 0.00 94 997.0
20260509114004 21 168 0.0 0.0 0.00 0.00 0.00 94 997.1
20260509113004 21 187 0.0 0.0 0.00 0.00 0.00 94 997.3
20260509112504 21 199 0.0 0.0 0.00 0.00 0.00 94 997.3
20260509111003 21 241 0.0 0.0 0.00 0.00 0.00 94 997.3
20260509110503 21 199 0.0 0.0 0.00 0.00 0.00 94 997.6
20260509110004 21 175 0.0 0.0 0.00 0.00 0.00 94 997.9
20260509105504 21 222 0.0 1.6 0.00 0.00 0.00 94 997.6
20260509105003 21 102 1.6 1.6 0.00 0.00 0.00 94 997.7
20260509104503 21 103 0.0 1.6 0.00 0.00 0.00 94 997.8
20260509103504 21 155 0.0 0.0 0.00 0.00 0.00 94 997.8
20260509103004 21 148 0.0 3.2 0.00 0.00 0.00 94 997.7
20260509102004 21 93 0.0 3.2 0.00 0.00 0.00 94 997.6
20260509101504 21 85 1.6 3.2 0.00 0.00 0.00 94 997.4
20260509101004 21 93 1.6 3.2 0.00 0.00 0.00 94 997.6
20260509100504 21 109 1.6 3.2 0.00 0.00 0.00 94 997.4
20260509100005 21 182 0.0 3.2 0.00 0.00 0.00 94 997.3
20260509094504 21 133 0.0 1.6 0.00 0.00 0.00 93 996.9
20260509093504 21 101 0.0 0.0 0.00 0.00 0.00 93 996.6
20260509093004 21 157 0.0 0.0 0.00 0.00 0.00 93 996.5
20260509092004 21 88 0.0 1.6 0.00 0.00 0.00 92 996.1
20260509091004 21 257 0.0 0.0 0.00 0.00 0.00 92 996.0
20260509090504 21 181 0.0 0.0 0.00 0.00 0.00 92 996.0
20260509085504 22 224 0.0 0.0 0.00 0.00 0.00 92 996.1
20260509085004 22 199 0.0 0.0 0.00 0.00 0.00 92 996.2
20260509084503 22 204 0.0 0.0 0.00 0.00 0.00 92 996.6
20260509084003 21 165 0.0 0.0 0.00 0.00 0.00 92 996.6
20260509083503 21 157 0.0 0.0 0.00 0.00 0.00 92 996.7
20260509082503 21 150 0.0 0.0 0.00 0.00 0.00 91 996.6
20260509081503 21 150 0.0 0.0 0.00 0.00 0.00 91 996.6
20260509081004 21 12 0.0 0.0 0.00 0.00 0.00 91 996.6
20260509080504 21 159 0.0 0.0 0.00 0.00 0.00 91 996.7
20260509080004 21 208 0.0 1.6 0.00 0.00 0.00 91 996.6
20260509075504 21 144 0.0 0.0 0.00 0.00 0.00 91 996.6
20260509075004 22 104 0.0 0.0 0.00 0.00 0.00 91 996.8
20260509074504 22 175 0.0 0.0 0.00 0.00 0.00 91 996.9
20260509074004 22 138 0.0 0.0 0.00 0.00 0.00 91 997.3
20260509073504 22 124 0.0 0.0 0.00 0.00 0.00 91 997.0
20260509073004 21 138 0.0 0.0 0.00 0.00 0.00 91 996.9
20260509072504 21 140 0.0 0.0 0.00 0.00 0.00 91 996.7
20260509072004 21 136 0.0 1.6 0.00 0.00 0.00 91 996.9
20260509071504 21 137 0.0 0.0 0.00 0.00 0.00 91 997.2
20260509071004 21 64 0.0 0.0 0.00 0.00 0.00 91 997.1
20260509070504 21 209 0.0 0.0 0.00 0.00 0.00 91 997.0
20260509070004 21 152 0.0 0.0 0.00 0.00 0.00 91 997.1
20260509065504 22 32 0.0 0.0 0.00 0.00 0.00 91 996.8
20260509065004 22 124 0.0 1.6 0.00 0.00 0.00 91 996.9
20260509064004 22 77 0.0 0.0 0.00 0.00 0.00 91 997.0
20260509063504 22 153 0.0 3.2 0.00 0.00 0.00 91 996.9
20260509063004 22 97 0.0 3.2 0.00 0.00 0.00 90 997.0
20260509062504 22 117 1.6 4.8 0.00 0.00 0.00 90 997.0
20260509061504 22 258 0.0 1.6 0.00 0.00 0.00 90 997.1
20260509061003 22 186 0.0 0.0 0.00 0.00 0.00 90 996.8
20260509060503 22 198 0.0 0.0 0.00 0.00 0.00 90 996.7
20260509060004 22 231 0.0 1.6 0.00 0.00 0.00 90 996.8
20260509055504 22 231 1.6 4.8 0.00 0.00 0.00 90 996.7
20260509055004 22 265 3.2 8.0 0.00 0.00 0.00 90 996.8
20260509054004 22 291 3.2 4.8 0.00 0.00 0.00 90 996.3
20260509052004 22 235 3.2 4.8 0.00 0.00 0.00 90 995.5
20260509051503 22 252 3.2 4.8 0.00 0.00 0.00 90 995.3
20260509051004 22 255 3.2 4.8 0.00 0.00 0.00 90 995.5
20260509050504 22 250 3.2 4.8 0.00 0.00 0.00 90 995.4
20260509050004 22 278 4.8 8.0 0.00 0.00 0.00 90 995.2
20260509045504 22 288 4.8 8.0 0.00 0.00 0.00 89 995.1
20260509045004 22 231 4.8 8.0 0.00 0.00 0.00 89 995.3
20260509044004 22 229 3.2 4.8 0.00 0.00 0.00 88 995.6
20260509043504 22 257 3.2 4.8 0.00 0.00 0.00 88 995.8
20260509043004 22 244 1.6 4.8 0.00 0.00 0.00 88 996.0
20260509042504 22 278 3.2 8.0 0.00 0.00 0.00 88 996.0
20260509042004 22 262 3.2 4.8 0.00 0.00 0.00 88 996.0
20260509041504 22 220 3.2 8.0 0.00 0.00 0.00 88 995.9
20260509040504 22 244 1.6 4.8 0.00 0.00 0.00 87 996.0
20260509040004 22 247 3.2 8.0 0.00 0.00 0.00 87 996.0
20260509035504 22 263 3.2 4.8 0.00 0.00 0.00 87 996.1
20260509034504 22 217 3.2 4.8 0.00 0.00 0.00 87 996.0
20260509033503 22 218 3.2 8.0 0.00 0.00 0.00 87 995.9
20260509033003 22 238 3.2 8.0 0.00 0.00 0.00 87 995.9
20260509032504 22 281 3.2 4.8 0.00 0.00 0.00 87 995.8
20260509032003 22 251 1.6 8.0 0.00 0.00 0.00 87 995.8
20260509031503 22 238 3.2 11.3 0.00 0.00 0.00 87 995.6
20260509031003 22 238 4.8 8.0 0.00 0.00 0.00 87 995.5
20260509030004 22 245 3.2 8.0 0.00 0.00 0.00 87 995.5
20260509025504 22 257 4.8 8.0 0.00 0.00 0.00 87 995.5
20260509025004 22 262 3.2 8.0 0.00 0.00 0.00 87 995.5
20260509024504 22 223 3.2 9.7 0.00 0.00 0.00 86 995.3
20260509024004 22 237 4.8 8.0 0.00 0.00 0.00 86 995.4
20260509023504 23 263 3.2 8.0 0.00 0.00 0.00 86 995.3
20260509023005 23 245 1.6 3.2 0.00 0.00 0.00 86 995.4
20260509022504 23 230 1.6 3.2 0.00 0.00 0.00 86 995.5
20260509021504 23 213 1.6 3.2 0.00 0.00 0.00 86 995.2
20260509021004 22 231 0.0 3.2 0.00 0.00 0.00 86 995.1
20260509020504 22 220 1.6 3.2 0.00 0.00 0.00 86 995.0
20260509020004 23 242 0.0 1.6 0.00 0.00 0.00 85 994.8
20260509015503 23 199 0.0 1.6 0.00 0.00 0.00 85 994.9
20260509015004 23 213 1.6 8.0 0.00 0.00 0.00 85 994.8
20260509014504 23 182 3.2 8.0 0.00 0.00 0.00 85 994.8
20260509014004 23 300 1.6 4.8 0.00 0.00 0.00 85 994.8
20260509013503 23 216 3.2 8.0 0.00 0.00 0.00 84 994.6
20260509013004 23 212 3.2 8.0 0.00 0.00 0.00 84 994.8
20260509011504 23 205 3.2 9.7 0.00 0.00 0.00 83 994.6
20260509011004 23 217 1.6 4.8 0.00 0.00 0.00 83 994.5
20260509010504 23 270 1.6 8.0 0.00 0.00 0.00 83 994.5
20260509005503 23 270 1.6 4.8 0.00 0.00 0.00 82 994.7
20260509005004 23 200 3.2 9.7 0.00 0.00 0.00 82 994.7
20260509004503 24 157 3.2 8.0 0.00 0.00 0.00 81 994.8
20260509004004 24 127 1.6 8.0 0.00 0.00 0.00 79 994.6
20260509003004 24 245 1.6 8.0 0.00 0.00 0.00 79 994.7
20260509002504 24 201 3.2 8.0 0.00 0.00 0.00 79 994.6
20260509002004 24 246 1.6 4.8 0.00 0.00 0.00 79 994.7
20260509001004 24 256 1.6 8.0 0.00 0.00 0.00 79 994.6
20260509000504 24 233 4.8 9.7 0.00 0.00 0.00 79 994.8
20260509000004 24 249 3.2 8.0 0.00 0.00 0.00 80 994.7
20260508235503 24 268 3.2 11.3 0.00 0.00 0.00 80 994.8
20260508235004 24 227 3.2 4.8 0.00 0.00 0.00 80 994.8
20260508234004 24 249 1.6 8.0 0.00 0.00 0.00 80 994.9
20260508233504 24 238 3.2 11.3 0.00 0.00 0.00 80 994.8
20260508233004 24 183 4.8 11.3 0.00 0.00 0.00 80 994.8
20260508232504 24 223 4.8 9.7 0.00 0.00 0.00 79 994.6
20260508232004 24 176 6.4 11.3 0.00 0.00 0.00 79 994.6
20260508231504 24 185 4.8 12.9 0.00 0.00 0.00 79 994.7
20260508231004 24 166 4.8 12.9 0.00 0.00 0.00 78 994.7
20260508230504 24 191 3.2 8.0 0.00 0.00 0.00 78 994.7
20260508225504 24 216 4.8 11.3 0.00 0.00 0.00 77 994.7
20260508225004 25 184 8.0 11.3 0.00 0.00 0.00 77 994.8
20260508224504 25 212 3.2 9.7 0.00 0.00 0.00 76 994.7
20260508223504 25 222 4.8 9.7 0.00 0.00 0.00 76 994.6
20260508222003 25 233 4.8 9.7 0.00 0.00 0.00 74 994.8
20260508221503 25 220 4.8 12.9 0.00 0.00 0.00 74 994.8
20260508221003 25 189 6.4 12.9 0.00 0.00 0.00 74 994.9
20260508220503 25 195 4.8 8.0 0.00 0.00 0.00 74 994.8
20260508220003 25 196 4.8 8.0 0.00 0.00 0.00 73 994.9
20260508215503 25 230 4.8 12.9 0.00 0.00 0.00 72 995.1
20260508214503 25 198 4.8 14.5 0.00 0.00 0.00 72 995.0
20260508214004 25 260 3.2 8.0 0.00 0.00 0.00 72 995.0
20260508213503 26 198 3.2 9.7 0.00 0.00 0.00 70 995.0
20260508212004 26 269 1.6 9.7 0.00 0.00 0.00 69 995.2
20260508211504 26 211 1.6 9.7 0.00 0.00 0.00 68 995.3
20260508211003 27 308 4.8 12.9 0.00 0.00 0.00 66 995.4
20260508210504 26 215 8.0 12.9 0.00 0.00 0.00 67 995.4
20260508210003 27 191 3.2 12.9 0.00 0.00 0.00 67 995.5
20260508205504 26 222 4.8 8.0 0.00 0.00 0.00 67 995.6
20260508205004 26 246 3.2 11.3 0.00 0.00 0.00 68 995.8
20260508204504 25 186 4.8 11.3 0.00 0.00 0.00 70 996.0
20260508204004 26 205 4.8 11.3 0.00 0.00 0.00 69 996.0
20260508203504 26 156 3.2 9.7 0.00 0.00 0.00 67 995.9
20260508203004 26 202 4.8 11.3 0.00 0.00 0.00 68 996.0
20260508202503 26 232 4.8 9.7 0.00 0.00 0.00 69 995.9
20260508202004 26 225 3.2 8.0 0.00 0.00 0.00 68 996.1
20260508201504 26 167 4.8 9.7 0.00 0.00 0.00 68 996.2
20260508201003 25 274 4.8 11.3 0.00 0.00 0.00 69 996.2
20260508200504 25 260 3.2 14.5 0.00 0.00 0.00 70 996.3
20260508200003 26 237 4.8 14.5 0.00 0.00 0.00 68 996.2
20260508195503 26 195 6.4 11.3 0.00 0.00 0.00 67 996.2
20260508195004 26 211 1.6 9.7 0.00 0.00 0.00 68 996.5
20260508194503 25 189 4.8 9.7 0.00 0.00 0.00 69 996.6
20260508193504 25 240 4.8 8.0 0.00 0.00 0.00 70 996.7
20260508193003 25 218 1.6 4.8 0.00 0.00 0.00 69 996.7
20260508192504 25 193 1.6 8.0 0.00 0.00 0.00 69 996.8
20260508192004 25 234 3.2 8.0 0.00 0.00 0.00 71 997.0
20260508191503 25 227 3.2 8.0 0.00 0.00 0.00 69 997.0
20260508190504 24 223 3.2 4.8 0.00 0.00 0.00 70 996.8
20260508190004 24 188 4.8 8.0 0.00 0.00 0.00 70 997.1
20260508185504 24 229 1.6 9.7 0.00 0.00 0.00 71 997.0
20260508185004 24 203 3.2 9.7 0.00 0.00 0.00 71 997.0
20260508184004 23 226 3.2 4.8 0.00 0.00 0.00 71 997.2
20260508183504 24 268 1.6 4.8 0.00 0.00 0.00 71 997.2
20260508183004 24 231 3.2 4.8 0.00 0.00 0.00 70 997.3
20260508182504 24 164 4.8 9.7 0.00 0.00 0.00 70 997.4
20260508181504 23 204 3.2 8.0 0.00 0.00 0.00 70 997.6
20260508181004 23 198 3.2 8.0 0.00 0.00 0.00 70 997.7
20260508180504 23 87 0.0 3.2 0.00 0.00 0.00 73 997.8
20260508180004 22 117 1.6 3.2 0.00 0.00 0.00 74 997.8
20260508175004 22 263 1.6 3.2 0.00 0.00 0.00 73 997.8
20260508174504 22 188 0.0 0.0 0.00 0.00 0.00 74 997.9
20260508174004 21 225 0.0 4.8 0.00 0.00 0.00 75 997.8
20260508173504 21 283 3.2 4.8 0.00 0.00 0.00 75 998.1
20260508173004 22 282 1.6 3.2 0.00 0.00 0.00 75 998.0
20260508172504 22 224 1.6 3.2 0.00 0.00 0.00 74 998.0
20260508172004 22 206 3.2 4.8 0.00 0.00 0.00 73 998.1
20260508171504 21 181 0.0 4.8 0.00 0.00 0.00 75 998.0
20260508171004 21 118 0.0 4.8 0.00 0.00 0.00 75 998.0
20260508170504 21 256 1.6 4.8 0.00 0.00 0.00 75 998.2
20260508165504 21 230 0.0 0.0 0.00 0.00 0.00 75 998.4
20260508165004 20 115 0.0 0.0 0.00 0.00 0.00 75 998.6
20260508164504 20 157 0.0 0.0 0.00 0.00 0.00 76 998.7
20260508164003 20 205 0.0 0.0 0.00 0.00 0.00 76 998.8
20260508162504 20 142 0.0 1.6 0.00 0.00 0.00 74 999.0
20260508162004 20 265 1.6 3.2 0.00 0.00 0.00 75 998.8
20260508161504 20 231 0.0 1.6 0.00 0.00 0.00 76 998.9
20260508161004 19 172 0.0 1.6 0.00 0.00 0.00 76 998.9
20260508155504 19 259 0.0 0.0 0.00 0.00 0.00 77 999.3
20260508155004 19 250 0.0 0.0 0.00 0.00 0.00 78 999.0
20260508154504 18 193 0.0 0.0 0.00 0.00 0.00 78 999.1
20260508154004 18 283 1.6 3.2 0.00 0.00 0.00 78 999.2
20260508153504 19 245 1.6 8.0 0.00 0.00 0.00 78 999.4
20260508153004 19 300 1.6 8.0 0.00 0.00 0.00 76 999.4
20260508152504 19 210 0.0 1.6 0.00 0.00 0.00 76 999.3
20260508152004 18 249 1.6 4.8 0.00 0.00 0.00 77 999.1
20260508151504 18 269 1.6 4.8 0.00 0.00 0.00 78 999.3
20260508151004 18 304 1.6 4.8 0.00 0.00 0.00 78 999.2
20260508150504 18 258 1.6 3.2 0.00 0.00 0.00 78 999.3
20260508150005 18 236 1.6 8.0 0.00 0.00 0.00 77 999.0
20260508145503 18 260 3.2 8.0 0.00 0.00 0.00 78 999.2
20260508145003 18 275 0.0 0.0 0.00 0.00 0.00 77 999.2
20260508144004 18 260 0.0 0.0 0.00 0.00 0.00 78 999.0
20260508143004 18 225 0.0 3.2 0.00 0.00 0.00 78 999.0
20260508142503 18 141 0.0 4.8 0.00 0.00 0.00 79 999.1
20260508142003 18 224 3.2 4.8 0.00 0.00 0.00 78 999.2
20260508141504 18 178 1.6 3.2 0.00 0.00 0.00 78 999.3
20260508141004 17 229 1.6 4.8 0.00 0.00 0.00 79 999.4
20260508140004 18 213 1.6 4.8 0.00 0.00 0.00 78 999.1
20260508135504 18 266 1.6 3.2 0.00 0.00 0.00 78 999.0
20260508135003 18 234 0.0 1.6 0.00 0.00 0.00 78 999.0
20260508134504 17 179 1.6 3.2 0.00 0.00 0.00 80 998.8
20260508134004 17 171 1.6 4.8 0.00 0.00 0.00 80 999.0
20260508133504 17 158 0.0 0.0 0.00 0.00 0.00 81 999.2
20260508133004 16 242 0.0 0.0 0.00 0.00 0.00 82 999.6
20260508132504 16 234 0.0 0.0 0.00 0.00 0.00 82 999.6
20260508132004 16 263 0.0 0.0 0.00 0.00 0.00 82 999.8
20260508131504 16 190 0.0 0.0 0.00 0.00 0.00 83 999.6
20260508131004 16 200 0.0 3.2 0.00 0.00 0.00 84 999.6
20260508130504 16 238 0.0 0.0 0.00 0.00 0.00 84 999.3
20260508125504 16 193 0.0 0.0 0.00 0.00 0.00 84 999.7
20260508125004 16 213 0.0 0.0 0.00 0.00 0.00 85 999.4
20260508124504 15 241 0.0 0.0 0.00 0.00 0.00 85 999.5
20260508123503 15 219 0.0 1.6 0.00 0.00 0.00 85 999.7